Activity Log for Jul, 30 2019

Back to Activity Log Search


Incident Time Nature Address
19F091251 00:15:11 30 TRAFFIC STOP S HANNA ST & E LEITH ST
19F091252 00:16:38 30 TRAFFIC STOP ST MARYS AVE & PUTNAM ST
19F091253 00:27:26 61 RAPE 35XX FAIRFIELD AVE
19F091256 00:27:34 22I JUV INVEST 14XX LAKE AVE
19F091254 00:32:09 911 HANG UP 33XX W COLISEUM BLVD
19F091255 00:32:20 40A AUDIBLE 57XX COVENTRY LN
19F091257 00:39:20 48 SUSPICIOUS 22XX GOSHEN RD
19F091258 00:41:33 48 SUSPICIOUS 4XX E TABER ST
19F091259 00:52:32 46 DOMESTIC 16XX FRANKLIN AVE
19F091260 00:53:32 46 DOMESTIC 15XX TAYLOR ST
19F091261 00:58:43 51 THEFT 4XX EDGEWOOD AVE
19F091262 01:03:39 48,36 W COOK RD & LIMA RD
19F091263 01:10:45 48 SUSPICIOUS 4XX E RUDISILL BLVD
19F091264 01:12:14 44LP 48XX CALUMET AVE
19F091265 01:36:57 30 TRAFFIC STOP S CALHOUN ST & E LEITH ST
19F091266 01:38:47 48 SUSPICIOUS BEACON ST & E STATE BLVD
19F091267 01:42:44 48,36 DALMAN AVE & S BARR ST
19F091268 01:43:14 48 SUSPICIOUS 17XX HILLSIDE AVE
19F091269 01:49:55 129 24XX CARLTON CT
19F091271 01:51:48 62 PARTY ARMED 18XX W MAIN ST
19F091270 01:53:00 51 THEFT 41XX N CLINTON ST
19F091272 02:02:15 30 TRAFFIC STOP S HANNA ST & E CREIGHTON AVE
19F091273 02:07:59 103 UNWANTED 12XX W MAIN ST
19F091274 02:31:39 96JO 21XX CHARTWELL DR
19F091275 02:41:33 911 HANG UP 33XX W COLISEUM BLVD
19F091276 02:42:14 40A AUDIBLE 6XX PUTNAM ST
19F091277 02:51:04 37 PARKING VIOL 47XX W ARLINGTON PARK BLVD
19F091278 03:10:15 40H HOLDUP ALRM 67XX E STATE BLVD
19F091281 03:10:37 40A AUDIBLE 42XX LAKE AVE
19F091279 03:11:20 66V MENTAL VIOL 14XX MEDICAL PARK DR
19F091280 03:11:35 40A AUDIBLE 40XX E STATE BLVD
19F091283 03:25:17 911 HANG UP 33XX W COLISEUM BLVD
19F091284 03:25:57 22I JUV INVEST 53XX COLDWATER RD
19F091282 03:28:38 30 TRAFFIC STOP E COLISEUM BLVD & HOBSON RD
19F091285 04:06:24 65A SUICIDE ATT 3XX FRENCH AVE
19F091286 04:07:52 44LM 79XX DECATUR RD
19F091287 04:09:20 48 SUSPICIOUS 29XX WHITE OAK AVE
19F091288 04:23:18 34 TRAFF HAZARD 11XX GOSHEN AVE
19F091289 04:29:00 33 DISABLED VEH 43XX E WASHINGTON BLVD
19F091290 04:30:49 23 VANDALISM 9XX PEMBERTON DR
19F091291 04:35:44 40A AUDIBLE 64XX LOOP CT
19F091292 04:56:43 48 SUSPICIOUS 16XX CRESCENT AVE
19F091294 05:07:34 40A AUDIBLE 35XX E STATE BLVD
19F091293 05:07:59 51,35 33XX ADIRONDACK DR
19F091295 05:16:54 46 DOMESTIC 1XX W SUPERIOR ST
19F091296 05:16:55 48 SUSPICIOUS 31XX SMITH ST
19F091300 05:26:09 EMS 74XX HICKORY CREEK DR
19F091297 05:39:02 30 TRAFFIC STOP S LAFAYETTE ST & MURRAY ST
19F091298 05:51:53 30 TRAFFIC STOP ENGLE RD & SMITH RD
19F091299 06:08:05 30 TRAFFIC STOP HILLEGAS RD & BUTLER RD
19F091301 06:32:57 30 TRAFFIC STOP S ANTHONY BLVD & E PONTIAC ST
19F091303 06:33:23 43 DISTURBANCE W JEFFERSON BLVD & EWING ST
19F091302 06:34:16 30 TRAFFIC STOP LIMA RD & RABUS DR
19F091304 06:44:45 40A AUDIBLE 42XX COLDWATER RD
19F091308 06:55:33 911 HANG UP 22XX DUNKELBERG RD
19F091306 06:55:35 25 PD ACCIDENT GOSHEN RD & HILLEGAS RD
19F091305 06:56:25 23,35 VAND VEH 82XX LAKESIDE CT
19F091309 06:56:34 34 TRAFF HAZARD BROADWAY & W WASHINGTON BLVD
19F091312 06:57:05 16,97 3XX FRENCH AVE
19F091307 06:58:24 20 PROBLEM UNK 22XX SHERMAN BLVD
19F091311 07:02:05 40A AUDIBLE 3XX W COLISEUM BLVD
19F091310 07:02:18 25 PD ACCIDENT FULTON ST & W WASHINGTON BLVD
19F091313 07:11:35 18 WORK TRAFFIC 9XX E PAULDING RD
19F091315 07:14:48 40A AUDIBLE 4XX ARCADIA CT
19F091314 07:14:52 40A AUDIBLE 95XX LIMA RD
19F091316 07:23:12 40A AUDIBLE 59XX HOMESTEAD RD
19F091320 07:23:24 51,35 29XX BROADWAY
19F091317 07:32:11 22I JUV INVEST SOUTHPARK DR & E MAPLE GROVE AVE
19F091318 07:34:31 48,35 54XX S CALHOUN ST
19F091319 07:36:51 25HS HIT SKIP S LAFAYETTE ST & JOHN ST
19F091321 07:42:29 40A AUDIBLE 18XX E WAYNE TRACE
19F091322 07:45:45 46,96 XX E MAIN ST
19F091323 07:53:49 102 THREATS 40XX S HANNA ST
19F091324 08:03:35 23,35 VAND VEH 29XX PINEWOOD DR
19F091327 08:08:29 1 MEET 6XX HIGH ST
19F091326 08:09:31 43,62 32XX DEBENEY DR
19F091325 08:10:40 103 UNWANTED 56XX COVENTRY LN
19F091328 08:19:05 48 SUSPICIOUS 42XX WELLS ST
19F091329 08:25:01 30 TRAFFIC STOP 34XX WELLS ST
19F091331 08:26:03 911 HANG UP 32XX N WASHINGTON RD
19F091330 08:26:38 40 ALARM 24XX N GLENDALE DR
19F091332 08:29:22 108 FOLLOWUP 6XX GUMPPER AVE
19F091334 08:30:51 16,97 32XX W COLISEUM BLVD
19F091333 08:31:39 25 PD ACCIDENT WELLS ST & JACOBS AVE
19F091335 08:40:13 30 TRAFFIC STOP NUTTMAN AVE & BROADWAY
19F091338 08:40:46 911 HANG UP 57XX COVENTRY LN
19F091336 08:42:04 129 74XX TIPPERARY TRL
19F091337 08:42:16 129 74XX ANTEBELLUM BLVD
19F091339 08:44:43 48 SUSPICIOUS W JEFFERSON BLVD & LIBERTY MILLS R
19F091340 08:55:07 103 UNWANTED 1XX N THREE RIVERS
19F091342 09:01:29 50,ATTEMPTED 84XX BRIDGEWAY LN
19F091343 09:04:07 63 CONTACT 72XX BEATY AVE
19F091341 09:04:19 25HS HIT SKIP 53XX MEADOWBROOK DR
19F091344 09:04:25 43 DISTURBANCE 4XX W JEFFERSON BLVD
19F091346 09:06:41 25HS HIT SKIP 46XX INNSBRUCK DR
19F091345 09:08:02 30 TRAFFIC STOP W COOK RD & LIMA RD
19F091347 09:14:53 66 MENTALLY ILL 9XX RIDGEWOOD DR
19F091350 09:25:00 48 SUSPICIOUS 12XX THIRD ST
19F091348 09:29:52 30 TRAFFIC STOP LIMA RD & W COLISEUM BLVD
19F091352 09:37:40 30 TRAFFIC STOP 62XX MAPLECREST RD
19F091359 09:37:49 17 MOTOR CHECK 24XX W JEFFERSON BLVD
19F091355 09:40:55 30 TRAFFIC STOP 45XX GAYWOOD DR
19F091358 09:49:57 46 DOMESTIC XX E MAIN ST
19F091363 09:53:07 17 MOTOR CHECK 27XX W JEFFERSON BLVD
19F091360 10:04:53 66 MENTALLY ILL XX E MAIN ST
19F091361 10:05:41 41,36 W PACKARD AVE & FAIRFIELD AVE
19F091362 10:07:25 108 FOLLOWUP 20XX HOBSON RD
19F091372 10:25:31 EMS 8XX W DEWALD ST
19F091364 10:26:13 17 MOTOR CHECK 34XX LIMA RD
19F091365 10:30:40 22RC RECOVERY 22XX WEISSER PARK AVE
19F091366 10:30:48 47 REMOVE ITEMS 13XX FAYETTE DR
19F091367 10:36:28 40 ALARM 31XX OXFORD ST
19F091369 10:40:09 50 BURGLARY 16XX SHORT ST
19F091390 10:40:44 17 MOTOR CHECK 25XX WEBSTER ST
19F091368 10:41:37 63 CONTACT 71XX WINNEBAGO DR
19F091371 10:45:53 ATL 20XX HOBSON RD
19F091370 10:48:13 51 THEFT 55XX COVENTRY LN
19F091373 10:49:46 43 DISTURBANCE 75XX IDEAL AVE
19F091374 10:54:33 911 HANG UP 4XX PINEGROVE LN
19F091375 11:00:59 48,35 49XX FOREST AVE
19F091376 11:09:00 51 THEFT 17XX APPLE GLEN BLVD
19F091377 11:22:04 HARASSMENT 37XX BOWSER AVE
19F091378 11:23:16 40P PANIC ALARM 27XX OLD POND CV
19F091379 11:32:51 48,36 MAURANE DR & GETZ RD
19F091380 11:40:42 25 PD ACCIDENT N CLINTON ST & AUBURN RD
19F091383 11:41:00 65T SUICIDE THR 12XX W JEFFERSON BLVD
19F091382 11:43:53 41 MAN DOWN 3XX E WAYNE ST
19F091381 11:44:22 30 TRAFFIC STOP ROBINWOOD DR & GRIER ST
19F091384 11:46:49 48,36 10XX FRANKLIN AVE
19F091385 11:49:34 33J LOCKED OUT 77XX SOUTHTOWN XING
19F091387 11:50:48 43 DISTURBANCE 74XX BRADBURY AVE
19F091386 11:50:53 25 PD ACCIDENT 10XX E DUPONT RD
19F091388 11:52:05 25 PD ACCIDENT GOSHEN AVE & SHERMAN BLVD
19F091389 11:53:17 25 PD ACCIDENT LIBERTY MILLS RD & W JEFFERSON BLV
19F091391 11:57:54 51,35 3XX W COLISEUM BLVD
19F091392 12:01:53 34 TRAFF HAZARD LAHMEYER RD & STELLHORN RD
19F091393 12:02:42 63 CONTACT 22XX BEACON ST
19F091395 12:04:00 40A AUDIBLE 30XX WINDRUSH DR
19F091394 12:05:27 46 DOMESTIC 19XX S HARRISON ST
19F091396 12:11:39 23,35 VAND VEH 47XX AVONDALE DR
19F091405 12:13:04 51 THEFT 54XX BOWSER AVE
19F091399 12:13:48 63 CONTACT 37XX E WASHINGTON BLVD
19F091403 12:14:53 23 VANDALISM 4XX ELIZABETH ST
19F091397 12:15:03 16,97 104XX MAYSVILLE RD
19F091398 12:16:40 911 HANG UP 26XX FAIRFIELD AVE
19F091400 12:20:15 1 MEET 42XX COLDWATER RD
19F091401 12:24:35 22I JUV INVEST 19XX N COLISEUM BLVD
19F091402 12:26:03 43 DISTURBANCE ST JOE CENTER RD & MAPLECREST RD
19F091407 12:30:48 ATL 24XX ABBEY DR
19F091404 12:31:40 97A LOST ITEMS REED ST & E CREIGHTON AVE
19F091406 12:35:43 50IP BURG I/P 18XX GREENTREE CT
19F091409 12:37:59 17 MOTOR CHECK 17XX S HARRISON ST
19F091408 12:41:38 51 THEFT 63XX TANBARK TRL
19F091410 12:44:31 41 MAN DOWN CLAY ST & E MAIN ST
19F091418 12:49:13 63 CONTACT 16XX MELROSE AVE
19F091413 12:50:03 22I JUV INVEST 22XX SHERMAN BLVD
19F091415 12:53:42 50JO 7XX WILT ST
19F091411 12:55:06 33,34 COVINGTON RD & W JEFFERSON BLVD
19F091412 12:55:51 129 4XX ESTERO RD
19F091417 12:59:40 43 DISTURBANCE 19XX FALCON HILL PL
19F091416 13:00:07 44 NUISANCE 29XX WEISSER PARK AVE
19F091420 13:01:45 108 FOLLOWUP XX E MAIN ST
19F091419 13:03:38 39 STOLEN VEHIC 24XX S LAFAYETTE ST
19F091421 13:05:15 129 48XX ROCKY KNOLL DR
19F091422 13:06:55 129 35XX GEDDES CT
19F091431 13:08:09 46 DOMESTIC 4XX W PAULDING RD
19F091423 13:09:59 30 TRAFFIC STOP WINNSBORO PASS & SR 3
19F091427 13:11:59 22I JUV INVEST 3XX FRENCH AVE
19F091424 13:16:01 41 MAN DOWN 42XX S ANTHONY BLVD
19F091425 13:17:01 65T SUICIDE THR 59XX ABBOTT ST
19F091426 13:22:45 43 DISTURBANCE 17XX MAUMEE AVE
19F091428 13:32:19 38 LOST/STOLEN 63XX MAYFAIR RD
19F091429 13:34:00 22I JUV INVEST FAIRFIELD AVE & CLERMONT DR
19F091439 13:36:29 39 STOLEN VEHIC 18XX GREENTREE CT
19F091440 13:39:40 47 REMOVE ITEMS 12XX W PACKARD AVE
19F091441 13:43:48 15 ASSIST 55XX COVENTRY LN
19F091430 13:46:54 1 MEET 28XX GOLDEN FIELDS CT
19F091433 13:55:47 51JO 15XX APPLE GLEN BLVD
19F091432 13:56:52 23,35 VAND VEH 16XX RANDFORD PL
19F091434 13:57:44 129 15XX SYCAMORE HILLS DR
19F091435 13:58:01 129 64XX SHADY CREEK CT
19F091436 13:58:45 911 HANG UP 53XX DISTRIBUTION DR
19F091437 13:59:14 43 DISTURBANCE REED RD & E STATE BLVD
19F091438 14:00:45 41 MAN DOWN TRINITY BLVD & CAMBRIDGE BLVD
19F091448 14:09:06 63 CONTACT 87XX SHEARWATER PASS
19F091445 14:09:28 65T SUICIDE THR 29XX SHAWNEE DR
19F091442 14:09:37 48 SUSPICIOUS 2XX E MAIN ST
19F091444 14:09:45 1 MEET 28XX GOLDEN FIELDS CT
19F091443 14:09:48 30 TRAFFIC STOP LEY RD & KEYSTONE DR
19F091446 14:10:40 63 CONTACT 23XX BELLEVUE DR
19F091447 14:15:52 17 MOTOR CHECK 67XX N CLINTON ST
19F091449 14:20:46 33,34 W MAIN ST & FAIRFIELD AVE
19F091450 14:22:25 51,35 56XX DECATUR RD
19F091451 14:38:51 16 PICK UP ITEM 18XX KENTUCKY AVE
19F091452 14:43:59 26PP PINNED CLAY ST & E WASHINGTON BLVD
19F091453 14:48:04 30 TRAFFIC STOP N COLISEUM BLVD & DELAWARE AVE
19F091454 14:50:45 30 TRAFFIC STOP NUTTMAN AVE & BEAVER AVE
19F091455 14:51:38 48,36 27XX S COLISEUM BLVD
19F091456 14:56:00 15,84 ASS URGEN 99XX SHADOW LAKE LN
19F091459 14:56:53 102 THREATS 80XX GLENCARIN BLVD
19F091457 14:57:30 30 TRAFFIC STOP RIDGEMONT DR & LARCH LN
19F091458 14:57:37 40H HOLDUP ALRM 31XX SPRING ST
19F091473 14:58:01 16 PICK UP ITEM 53XX COLDWATER RD
19F091460 14:58:46 40A AUDIBLE 41XX S MONROE ST
19F091463 15:01:11 102,TX THREATS 61XX DOWNINGTOWN DR
19F091462 15:02:40 25 PD ACCIDENT 29XX OAKWOOD DR
19F091461 15:03:21 26 PI ACCIDENT 33XX CHANCELLOR DR
19F091467 15:04:16 43 DISTURBANCE 25XX RIVER COVE TRL
19F091464 15:04:51 25 PD ACCIDENT 8XX S CALHOUN ST
19F091465 15:05:24 43 DISTURBANCE 59XX ABBOTT ST
19F091469 15:06:43 103 UNWANTED 41XX N CLINTON ST
19F091466 15:08:10 65A SUICIDE ATT 29XX N CLINTON ST
19F091468 15:09:00 66 MENTALLY ILL 8XX S HARRISON ST
19F091472 15:09:07 14 WARRANT 2XX E MAIN ST
19F091470 15:12:56 30 TRAFFIC STOP W WILLIAMS ST & WEBSTER ST
19F091471 15:13:22 23 VANDALISM 7XX THIRD ST
19F091475 15:14:24 ATL 36XX HIAWATHA BLVD
19F091486 15:16:21 39R STOLEN RECO 42XX COLDWATER RD
19F091474 15:16:48 15 ASSIST COVINGTON RD & GETZ RD
19F091476 15:18:55 27 RECKLESS DRI W US 30 & KROEMER RD
19F091477 15:31:29 48,35 LOWER HUNTINGTON RD & ARDMORE AVE
19F091481 15:31:36 14S SERVING WAR 37XX E WASHINGTON BLVD
19F091478 15:31:47 40A AUDIBLE 23XX N CLINTON ST
19F091491 15:33:34 1 MEET 27XX W WASHINGTON CENTER RD
19F091479 15:34:46 48 SUSPICIOUS 14XX SWINNEY AVE
19F091480 15:36:04 28 DUI CRESCENT AVE & TENNESSEE AVE
19F091482 15:36:12 48 SUSPICIOUS 19XX BLUFFTON RD
19F091483 15:42:02 39U UNAUTHORIZE 29XX WITCHWOOD DR
19F091484 15:44:36 51JO 8XX E COLISEUM BLVD
19F091485 15:46:57 20 PROBLEM UNK 4XX W JEFFERSON BLVD
19F091487 15:52:27 51 THEFT 79XX W JEFFERSON BLVD
19F091488 15:53:05 25 PD ACCIDENT WINNSBORO PASS & SR 3
19F091489 15:57:33 103 UNWANTED 47XX ARDEN DR
19F091490 15:59:10 23 VANDALISM 32XX DEBENEY DR
19F091492 16:04:16 51,ATTEMPTED 55XX MEIJER DR
19F091493 16:06:05 51 THEFT 18XX MARIETTA DR
19F091494 16:08:41 48 SUSPICIOUS 36XX LAKE AVE
19F091496 16:15:53 25HS HIT SKIP 45XX MAPLECREST RD
19F091497 16:18:09 102 THREATS 60XX BLUFFTON RD
19F091498 16:18:21 40A AUDIBLE 16XX SCHILLING AVE
19F091500 16:18:42 46 DOMESTIC 6XX HUFFMAN ST
19F091499 16:19:06 63 CONTACT 64XX ROXANNE DR
19F091501 16:23:33 46 DOMESTIC 31XX BROADWAY
19F091502 16:26:05 30 TRAFFIC STOP BROOKLYN AVE & WHITMORE AVE
19F091504 16:30:32 22I JUV INVEST 52XX LILLIE ST
19F091503 16:30:51 51JO 39XX W JEFFERSON BLVD
19F091514 16:33:00 66 72 HOUR 79XX W JEFFERSON BLVD
19F091505 16:34:15 50 BURGLARY 4XX LIVINGSTON AVE
19F091506 16:40:20 30 TRAFFIC STOP E RUDISILL BLVD & WINTER ST
19F091507 16:41:48 129 90XX COVINGTON RD
19F091510 16:42:02 43 DISTURBANCE 16XX REED RD
19F091508 16:42:12 34 TRAFF HAZARD BROADWAY & W WILDWOOD AVE
19F091511 16:43:43 34 TRAFF HAZARD LAKE AVE & REED RD
19F091509 16:44:12 48 SUSPICIOUS 3XX E SUPERIOR ST
19F091513 16:46:06 44LM 23XX BOWSER AVE
19F091512 16:46:14 EMS 52XX COVINGTON RD
19F091515 16:54:19 30 TRAFFIC STOP 2XX E RUDISILL BLVD
19F091519 16:54:40 30 TRAFFIC STOP 42XX CRESCENT AVE
19F091520 16:55:42 17 MOTOR CHECK 30XX S CALHOUN ST
19F091522 16:55:50 15 ASSIST 76XX VALLEY MEADOWS DR
19F091516 16:56:07 103 UNWANTED 33XX E DUPONT RD
19F091517 16:56:47 34 TRAFF HAZARD N COLISEUM BLVD & LAKE AVE
19F091518 16:57:04 51JO 101XX LIMA RD
19F091528 16:58:38 63 CONTACT 23XX W SOUTHCOUNTY LINE RD
19F091521 16:59:56 43 DISTURBANCE 20XX CARTERTON DR
19F091527 17:02:31 50,ATTEMPTED 63XX BIRCHDALE DR
19F091524 17:06:03 103 UNWANTED 27XX W WASHINGTON CENTER RD
19F091523 17:06:20 22I JUV INVEST 50XX ROTHMAN RD
19F091526 17:06:20 50 BURGLARY 34XX BROADWAY
19F091525 17:08:00 1 MEET SOUTHPARK DR & E PETTIT AVE
19F091530 17:12:22 102 THREATS 7XX OAKLAWN CT
19F091529 17:12:35 96JO 29XX DREXEL AVE
19F091534 17:13:21 22I JUV INVEST 75XX SOUTHTOWN XING
19F091531 17:17:35 102 THREATS 4XX BOLTZ ST
19F091532 17:18:54 51 THEFT 59XX ILLINOIS RD
19F091533 17:21:29 43 DISTURBANCE 75XX MILL RUN DR
19F091535 17:26:26 25 PD ACCIDENT W DEWALD ST & FAIRFIELD AVE
19F091537 17:27:38 25 PD ACCIDENT I 69 AND ILLINOIS RD
19F091536 17:27:52 30 TRAFFIC STOP OLIVER ST & COLERICK ST
19F091538 17:28:36 40A AUDIBLE 31XX OLIVER ST
19F091539 17:30:19 51IP BLUFFTON RD & WINCHESTER RD
19F091541 17:30:32 65T SUICIDE THR 79XX DECATUR RD
19F091540 17:31:06 30 TRAFFIC STOP S ANTHONY BLVD & E PAULDING RD
19F091542 17:33:38 40 ALARM 3XX S CORNELL CIR
19F091545 17:34:34 102,TX THREATS 41XX W JEFFERSON BLVD
19F091543 17:37:37 51 THEFT 59XX ILLINOIS RD
19F091544 17:38:04 30 TRAFFIC STOP MINNICH RD & SEILER RD
19F091549 17:40:02 51 THEFT 9XX HUFFMAN ST
19F091550 17:42:37 15 ASSIST 3XX FRENCH AVE
19F091546 17:44:22 30 TRAFFIC STOP BOWSER AVE & COLERICK ST
19F091548 17:44:26 EMS 52XX COVINGTON RD
19F091547 17:44:45 46 DOMESTIC 27XX W WASHINGTON CENTER RD
19F091552 17:49:23 911 HANG UP 69XX WINCHESTER RD
19F091551 17:52:09 51 THEFT 11XX NUTTMAN AVE
19F091555 17:54:36 17R REREAD 30XX S CALHOUN ST
19F091553 17:55:59 23 VANDALISM 14XX WELLS ST
19F091554 17:56:21 23 VANDALISM 16XX ROSEMONT DR
19F091556 17:59:50 51 THEFT 3XX W SUPERIOR ST
19F091557 18:02:40 25 PD ACCIDENT 9XX LAKE RIDGE PL
19F091558 18:03:44 30 TRAFFIC STOP 22XX HOLTON AVE
19F091560 18:04:30 46 DOMESTIC 6XX HUFFMAN ST
19F091559 18:05:29 30 TRAFFIC STOP OXFORD ST & ABBOTT ST
19F091562 18:06:50 46 DOMESTIC 20XX AUGUST DR
19F091561 18:07:13 51 THEFT 17XX GROVER LN
19F091563 18:08:50 43 DISTURBANCE 35XX ROBINWOOD DR
19F091564 18:10:56 63 CONTACT 19XX KENTUCKY AVE
19F091566 18:16:40 66 72 HOUR 79XX W JEFFERSON BLVD
19F091565 18:19:11 43 DISTURBANCE 12XX ONEIDA ST
19F091567 18:24:39 30 TRAFFIC STOP S ANTHONY BLVD & COLERICK ST
19F091568 18:29:15 30 TRAFFIC STOP E PAULDING RD & BOWSER AVE
19F091569 18:30:36 48 SUSPICIOUS ARLINGTON AVE & W RUDISILL BLVD
19F091570 18:35:16 26 PI ACCIDENT FRANCIS ST & MADISON ST
19F091571 18:39:14 911 HANG UP 53XX DISTRIBUTION DR
19F091572 18:39:58 113 SHOTS FIRED 5XX E SUTTENFIELD AVE
19F091573 18:41:43 43 DISTURBANCE 7XX BROADWAY
19F091578 18:42:14 34 TRAFF HAZARD FAIRFIELD AVE & W WILDWOOD AVE
19F091574 18:44:21 EMS 57XX LOIS LN
19F091575 18:50:08 48 SUSPICIOUS 34XX N ANTHONY BLVD
19F091577 18:54:07 EMS 31XX MCDONALD ST
19F091576 18:55:04 30 TRAFFIC STOP 306XX I 69 SB
19F091579 19:00:57 51JO 53XX COLDWATER RD
19F091581 19:04:56 129 16XX BUCKSKIN DR
19F091582 19:05:32 129 98XX ILLINOIS RD
19F091580 19:05:36 66V MENTAL VIOL 22XX LOWER HUNTINGTON RD
19F091590 19:10:06 22I JUV INVEST FRITZ RD & GOSHEN RD
19F091584 19:13:17 43 DISTURBANCE 10XX OAKLAWN CT
19F091583 19:13:47 30 TRAFFIC STOP E STATE BLVD & REED RD
19F091585 19:17:40 1 MEET 77XX BRECKENWOOD DR
19F091586 19:21:04 30 TRAFFIC STOP ST JOE RD & ROEBUCK BLVD
19F091587 19:21:45 30 TRAFFIC STOP 307XX I 69 SB
19F091591 19:22:15 ATL 14XX BAXTER ST
19F091589 19:23:15 23 VANDALISM 19XX FALCON HILL PL
19F091588 19:23:20 46 DOMESTIC 31XX E PONTIAC ST
19F091592 19:27:12 25HS HIT SKIP W WASHINGTON BLVD & ROCKHILL ST
19F091593 19:28:58 40A AUDIBLE 67XX POINTE INVERNESS WAY
19F091594 19:31:37 48,36 DAWN AVE & NEVADA AVE
19F091595 19:34:39 51 THEFT 9XX WALNUT ST
19F091597 19:35:37 40A AUDIBLE 1XX E PETTIT AVE
19F091598 19:36:17 50,ATTEMPTED 18XX KENSINGTON BLVD
19F091596 19:37:48 65T SUICIDE THR 49XX FAIRINGTON DR
19F091601 19:41:42 46,96 29XX CUTTER CV
19F091600 19:43:18 EMS 44XX S HANNA ST
19F091599 19:44:14 25 PD ACCIDENT E WAYNE ST & FRANCIS ST
19F091603 19:44:54 43 DISTURBANCE 10XX OAKLAWN CT
19F091602 19:46:49 30 TRAFFIC STOP E CREIGHTON AVE & S HANNA ST
19F091605 19:47:06 66 MENTALLY ILL 45XX ATWOOD DR
19F091604 19:47:45 48 SUSPICIOUS 29XX WESTBROOK DR
19F091606 19:51:13 108 FOLLOWUP 72XX BRADFORD DR
19F091608 19:52:00 37 PARKING VIOL 33XX OAKWOOD DR
19F091609 19:52:44 43 DISTURBANCE 14XX ST JOSEPH BLVD
19F091611 19:54:47 ATL 35XX FELICIAN ST
19F091607 19:55:17 40A AUDIBLE 13XX MEDICAL PARK DR
19F091610 19:58:54 25 PD ACCIDENT N CLINTON ST & E STATE BLVD
19F091614 19:59:50 34 TRAFF HAZARD 1XX W JEFFERSON BLVD
19F091613 20:11:25 48,36 31XX COVINGTON RD
19F091618 20:12:58 27 RECKLESS DRI LIMA RD & W WALLEN RD
19F091615 20:13:25 23 VANDALISM 20XX MAPLEWOOD RD
19F091616 20:14:47 40 ALARM 39XX ICE WAY
19F091620 20:15:28 33 DISABLED VEH 304XX I 69 NB
19F091617 20:15:41 96JO 33XX SANIBEL DR
19F091619 20:16:28 48 SUSPICIOUS 3XX STABLE DR
19F091622 20:24:51 33,34 SPY RUN AVE & WAGNER ST
19F091621 20:24:52 48 SUSPICIOUS S LAFAYETTE ST & E MAIN ST
19F091623 20:26:39 103 UNWANTED 79XX DECATUR RD
19F091627 20:29:27 63 CONTACT 12XX SPY RUN AVE
19F091625 20:35:23 96JO 17XX HOBSON RD
19F091624 20:37:28 30 TRAFFIC STOP WIEBKE ST & WARSAW ST
19F091626 20:40:22 51 THEFT 108XX KNOLLTON RUN
19F091628 20:42:28 48 SUSPICIOUS 3XX E MAIN ST
19F091629 20:43:43 26 PI ACCIDENT 48XX WEISSER PARK AVE
19F091630 20:44:10 41 MAN DOWN 2XX S CLINTON ST
19F091631 20:45:12 80 CIVIL INVEST XX E MAIN ST
19F091632 20:47:59 46 DOMESTIC 18XX BLUFFTON RD
19F091633 20:48:00 43 DISTURBANCE 3XX W SUPERIOR ST
19F091634 20:52:58 48 SUSPICIOUS W STATE BLVD & WELLS ST
19F091635 20:53:06 30 TRAFFIC STOP LILLIE ST & OXFORD ST
19F091636 20:53:31 58 SHOOTING S CLINTON ST & E RUDISILL BLVD
19F091637 20:54:48 30 TRAFFIC STOP ARDMORE AVE & W JEFFERSON BLVD
19F091638 20:57:34 62 PARTY ARMED 56XX LE STEELE BLVD
19F091639 20:58:52 65T SUICIDE THR 17XX COLUMBIA AVE
19F091640 21:06:02 48 SUSPICIOUS 38XX WAYNE TRACE
19F091642 21:11:51 25 PD ACCIDENT E COLISEUM BLVD & COLDWATER RD
19F091641 21:12:09 50IP BURG I/P 57XX HEATHERVIEW LN
19F091643 21:14:47 108 FOLLOWUP 53XX COLDWATER RD
19F091647 21:25:10 1 MEET 5XX W JEFFERSON BLVD
19F091654 21:27:58 66 MENTALLY ILL 10XX THIRD ST
19F091648 21:39:27 44LM 27XX OLIVER ST
19F091644 21:40:34 51 THEFT 22XX LAKEVIEW DR
19F091645 21:43:25 40A AUDIBLE 17XX APPLE GLEN BLVD
19F091646 21:43:59 48 SUSPICIOUS 5XX HUFFMAN ST
19F091649 21:47:41 55 FIGHT 19XX ANTOINETTE ST
19F091650 21:49:30 103 UNWANTED 35XX W COLISEUM BLVD
19F091651 21:51:09 40A AUDIBLE 4XX E WAYNE ST
19F091652 21:52:57 30 TRAFFIC STOP W MAIN ST & EWING ST
19F091653 21:56:13 50IP BURG I/P 29XX OLIVER ST
19F091655 21:58:39 51JO 5XX W SUPERIOR ST
19F091656 22:02:30 48 SUSPICIOUS 35XX W COLISEUM BLVD
19F091659 22:02:33 51,35 32XX BROADWAY
19F091657 22:02:53 30 TRAFFIC STOP 4XX EWING ST
19F091658 22:07:31 96JO 58XX CHALLENGER PKWY
19F091660 22:09:08 46,96 12XX COLUMBIA AVE
19F091661 22:12:07 30 TRAFFIC STOP E JEFFERSON BLVD & HARMAR ST
19F091662 22:14:26 103 UNWANTED 30XX GOSHEN RD
19F091663 22:14:33 23 VANDALISM 38XX WEISSER PARK AVE
19F091664 22:20:04 EMS 3XX E ESSEX LN
19F091665 22:21:25 108 FOLLOWUP 18XX NORTH HIGHLANDS BLVD
19F091666 22:23:51 103 UNWANTED 19XX BROADWAY
19F091667 22:28:28 59 CUTTING/STAB 3XX E WASHINGTON BLVD
19F091668 22:30:01 46 DOMESTIC 25XX CARLTON CT
19F091669 22:30:21 40A AUDIBLE 40XX HESSEN CASSEL RD
19F091670 22:32:07 46 DOMESTIC 29XX LARWILL CT
19F091672 22:35:16 44 NUISANCE 5XX CHARLOTTE AVE
19F091671 22:44:14 27 RECKLESS DRI LIMA RD & W DUPONT RD
19F091675 22:47:55 63 CONTACT 18XX W MAIN ST
19F091673 22:49:14 14S SERVING WAR 37XX E WASHINGTON BLVD
19F091674 22:49:33 99 NARCOTICS XX E MAIN ST
19F091676 22:50:18 30 TRAFFIC STOP LIMA RD & ICE WAY
19F091677 22:51:01 41 MAN DOWN 21XX CARTERTON DR
19F091678 22:52:25 48,36 54XX HEWITT LN
19F091679 22:53:29 30 TRAFFIC STOP CLAY ST & E JEFFERSON BLVD
19F091680 22:54:42 66 72 HOUR 79XX W JEFFERSON BLVD
19F091681 22:57:23 46 DOMESTIC 2XX W LEITH ST
19F091682 23:00:14 48,36 104XX MAYSVILLE RD
19F091683 23:01:28 30 TRAFFIC STOP W PACKARD AVE & BROADWAY
19F091685 23:02:47 27 RECKLESS DRI W JEFFERSON BLVD & LIBERTY MILLS R
19F091684 23:09:39 911 HANG UP 8XX W DEWALD ST
19F091686 23:11:47 48 SUSPICIOUS 14XX LAKE AVE
19F091687 23:14:24 30 TRAFFIC STOP W COLISEUM BLVD & HARRIS RD
19F091688 23:14:57 40A AUDIBLE 10XX S THOMAS RD
19F091689 23:14:59 48 SUSPICIOUS 39XX HESSEN CASSEL RD
19F091690 23:15:18 101 OPEN DOOR 14XX LAKE AVE
19F091691 23:16:02 113 SHOTS FIRED OLIVER ST & E RUDISILL BLVD
19F091692 23:18:58 39U UNAUTHORIZE 46XX E WASHINGTON BLVD
19F091693 23:19:50 46 DOMESTIC 40XX ROBINWOOD DR
19F091694 23:24:45 113 SHOTS FIRED OLIVER ST & BAXTER ST
19F091696 23:25:34 48,36 27XX REED ST
19F091695 23:26:44 30 TRAFFIC STOP 77XX IMPERIAL PLAZA DR
19F091697 23:37:32 48 SUSPICIOUS 60XX BUNT DR
19F091698 23:38:52 63 CONTACT 10XX LAKE AVE
19F091699 23:43:05 30 TRAFFIC STOP ST MARYS AVE & SPRING ST
19F091700 23:43:47 48 SUSPICIOUS W COLISEUM BLVD & HARRIS RD
19F091701 23:46:11 911 HANG UP 33XX CLERMONT AVE
19F091702 23:47:16 48 SUSPICIOUS 11XX HAMILTON AVE
19F091710 23:48:55 44LM 16XX E LEWIS ST
19F091703 23:58:09 30 TRAFFIC STOP ILLINOIS RD & W JEFFERSON BLVD
19F091706 23:59:28 24 MISSING PERS 4XX COLERICK ST